Flag for Moldova Weather past 2 weeks in Bălți, Moldova

Now
64 °F

Mild.


Feels Like: 64 °F
Forecast: 54 / 70 °F
Wind: 5 mph from West

Location: Baltsi-Leadoveni - The North of Moldova

Current Time: Aug 27, 2014 at 8:25:36 PM

Latest Report: Aug 27, 2014 at 8:00 PM


Visibility: N/A

Pressure: 29.74 "Hg

Humidity: 94%

Dew point: 63 °F

Location of BălțiLocation

Historic Weather in Bălți — Graph

°F

Bălți temperature yesterday

Maximum temperature yesterday: 77 °F (at 4:30 PM)
Minimum temperature yesterday: 55 °F (at 5:30 AM)
Average temperature yesterday: 66 °F

Past Weeks' High & Low Weather Summary

 TemperatureHumidityPressure
High95 °F (Aug 14, 3:00 PM)100% (Aug 21, 9:00 PM)30.12 "Hg (Aug 21, 9:00 PM)
Low50 °F (Aug 25, 6:30 AM)30% (Aug 19, 5:00 PM)29.71 "Hg (Aug 27, 5:00 PM)
Average69 °F65%29.94 "Hg
* Reported Aug 12 5:00 PM — Aug 27 5:30 PM, Bălți, Weather by CustomWeather, © 2014

Note: Actual official high and low records may vary slightly from our data, if they occured in-between our weather recording intervals... More about our weather records

Advertising

Bălți weather history for previous 24 hours

 ConditionsComfort  
Time TempWeatherWind HumidityBarometerVisibility
5:30 PM
Aug 27
64 °FScattered clouds.8 mph100%29.74 "Hg6 mi
5:00 PM64 °FScattered clouds.9 mph94%29.71 "HgN/A
4:30 PM64 °FSprinkles. Partly sunny.7 mph94%29.74 "HgN/A
4:00 PM64 °FSprinkles. Partly sunny.6 mph94%29.77 "HgN/A
3:30 PM64 °FSprinkles. Partly sunny.6 mph94%29.77 "HgN/A
3:00 PM64 °FSprinkles. Partly sunny.7 mph94%29.80 "Hg5 mi
2:30 PM66 °FSprinkles. Partly sunny.7 mph88%29.80 "Hg4 mi
2:00 PM68 °FSprinkles. Partly sunny.9 mph78%29.80 "Hg4 mi
1:30 PM70 °FSunny.No wind78%29.77 "Hg10 mi
1:00 PM68 °FSunny.No wind83%29.77 "Hg10 mi
12:30 PM70 °FSunny.3 mph78%29.77 "Hg10 mi
12:00 PM70 °FPassing clouds.6 mph73%29.80 "HgN/A
11:30 AM70 °FLight rain. Scattered clouds.9 mph69%29.80 "HgN/A
11:00 AM75 °FScattered clouds.10 mph57%29.80 "HgN/A
10:30 AM75 °FPassing clouds.8 mph57%29.80 "HgN/A
10:00 AM73 °FPassing clouds.9 mph65%29.80 "HgN/A
9:30 AM73 °FSunny.6 mph61%29.77 "Hg10 mi
9:00 AM72 °FSunny.7 mph65%29.77 "Hg10 mi
8:30 AM68 °FPassing clouds.7 mph73%29.77 "HgN/A
8:00 AM66 °FMild.6 mph73%29.77 "HgN/A
7:30 AM64 °FMild.8 mph78%29.80 "HgN/A
7:00 AM64 °FMild.9 mph78%29.77 "HgN/A
6:30 AM64 °FMild.10 mph78%29.77 "HgN/A
6:00 AM64 °FMild.8 mph78%29.77 "HgN/A
5:30 AM64 °FMild.10 mph78%29.77 "HgN/A
5:00 AM64 °FMild.10 mph78%29.77 "HgN/A
4:30 AM64 °FMild.10 mph78%29.77 "HgN/A
4:00 AM64 °FMild.10 mph78%29.77 "HgN/A
3:30 AM64 °FMild.9 mph83%29.77 "HgN/A
3:00 AM66 °FMild.12 mph78%29.77 "HgN/A
2:30 AM66 °FMild.14 mph78%29.77 "HgN/A
2:00 AM66 °FMild.13 mph78%29.80 "HgN/A
1:30 AM66 °FMild.14 mph78%29.80 "HgN/A
1:00 AM66 °FMild.14 mph78%29.80 "HgN/A
12:30 AM68 °FMild.15 mph73%29.80 "HgN/A
12:00 AM68 °FMild.14 mph73%29.80 "HgN/A
11:30 PM
Aug 26
68 °FMild.10 mph69%29.80 "HgN/A
11:00 PM70 °FMild.9 mph69%29.83 "HgN/A
10:30 PM70 °FMild.12 mph64%29.83 "HgN/A
10:00 PM70 °FMild.10 mph69%29.83 "HgN/A
9:30 PM70 °FMild.9 mph69%29.83 "HgN/A
9:00 PM70 °FMild.9 mph69%29.83 "HgN/A
8:30 PM70 °FMild.12 mph64%29.83 "HgN/A
8:00 PM72 °FMild.13 mph61%29.83 "HgN/A
Weather by CustomWeather, © 2014

See weather overviewHow to use our weather pages